User: anonymous   Login
Location: Enborne
(51.3833°N, 1.3667°W)
Time: 14:36:49
(UTC+00:00)
Language:

ATLAS 3B R/B - Orbit

View from above orbital plane
View from above orbital plane
View from above satellite
View from above satellite

Ground track
Ground track

The orbit data is extracted from the following two-line orbital elements,

1 28538U 05004B   21202.87534696 0.00000000  00000-0  00000-0 0    03
2 28538  63.8280 126.5757 0125816   9.4691 350.5309 13.43144455    09
Epoch (UTC): 21 July 2021 21:00:29
Eccentricity: 0.0125816
inclination: 63.8280°
perigee height: 1003 km
apogee height: 1191 km
right ascension of ascending node: 126.5757°
argument of perigee: 9.4691°
revolutions per day: 13.43144455
mean anomaly at epoch: 350.5309°
orbit number at epoch: 0

The dashed part of the orbit path shows where the satellite is in the earth's shadow,  

DLR